Location: Red Bud (historical)
(37.7759°N, 88.4053°W)
Time: 00:17:17
(UTC+00:00)

Cosmos 2227 Rocket - Pass Details

Date: 29 October 2020
Orbit: 839 x 845 km, 71.0° (Epoch: 28 November)

Event Time Altitude Azimuth Distance (km) Brightness Sun altitude
Rises 23:40:59 0° 342° (NNW) 3,404 5.4 -9.2°
Reaches altitude 10° 23:43:31 10° 348° (NNW) 2,467 4.7 -9.6°
Maximum altitude 23:49:01 52° 64° (ENE) 1,044 2.3 -10.7°
Drops below altitude 10° 23:54:31 10° 140° (SE) 2,457 4.3 -11.8°
Sets 23:57:01 0° 145° (SE) 3,389 5.1 -12.3°
